Location: Aldenham
(51.6667°N, 0.3500°W)
Time: 18:22:47
(UTC+00:00)

SJ 16-02 - Pass Details

Date: 18 November 2025
Orbit: 585 x 594 km, 75.0° (Epoch: 10 December)

Event Time Altitude Azimuth Distance (km) Brightness Sun altitude
Rises 18:17:08 0° 195° (SSW) 2,824 5.0 -19.8°
Reaches altitude 10° 18:19:22 10° 193° (SSW) 1,927 4.1 -20.1°
Maximum altitude 18:23:38 70° 110° (ESE) 637 1.1 -20.8°
Enters shadow 18:24:26 55° 51° (NE) 722 1.3 -20.9°
